User: anonymous   Login
Location: Fort Wayne
(41.1310°N, 85.1290°W)
Time: 16:54:36
(UTC-04:00)
Language:

MetOp-A - Orbit

View from above orbital plane
View from above orbital plane
View from above satellite
View from above satellite

Ground track
Ground track

The orbit data is extracted from the following two-line orbital elements,

1 29499U 06044A   18113.92356661 -.00000002  00000-0  18827-4 0  9992
2 29499  98.6323 172.6109 0001461  59.0290  57.7637 14.21519243597287
Epoch (UTC): 23 April 2018 22:09:56
Eccentricity: 0.0001461
inclination: 98.6323°
perigee height: 819 km
apogee height: 821 km
right ascension of ascending node: 172.6109°
argument of perigee: 59.0290°
revolutions per day: 14.21519243
mean anomaly at epoch: 57.7637°
orbit number at epoch: 59728

The dashed part of the orbit path shows where the satellite is in the earth's shadow,  

DLR